TimeCST,TemperatureF,Dew PointF,Humidity,Sea Level PressureIn,VisibilityMPH,Wind Direction,Wind SpeedMPH,Gust SpeedMPH,PrecipitationIn,Events,Conditions,WindDirDegrees,DateUTC
12:55 AM,69.8,64.4,83,29.82,10.0,SSE,5.8,-,N/A,,Mostly Cloudy,160,2013-12-05 06:55:00
1:55 AM,69.8,64.4,83,29.83,10.0,South,5.8,-,N/A,,Overcast,170,2013-12-05 07:55:00
2:15 AM,69.8,64.4,83,29.83,10.0,South,5.8,-,N/A,,Overcast,170,2013-12-05 08:15:00
2:35 AM,71.6,66.2,83,29.83,10.0,South,6.9,-,N/A,,Overcast,180,2013-12-05 08:35:00
2:55 AM,71.6,66.2,83,29.83,10.0,South,8.1,-,N/A,,Mostly Cloudy,190,2013-12-05 08:55:00
3:15 AM,71.6,66.2,83,29.84,10.0,Variable,6.9,-,N/A,,Mostly Cloudy,0,2013-12-05 09:15:00
3:35 AM,69.8,66.2,88,29.84,10.0,West,10.4,-,N/A,,Overcast,260,2013-12-05 09:35:00
3:55 AM,69.8,64.4,83,29.85,10.0,WNW,10.4,-,N/A,,Overcast,290,2013-12-05 09:55:00
4:15 AM,66.2,62.6,88,29.86,10.0,NW,11.5,-,N/A,,Overcast,310,2013-12-05 10:15:00
4:35 AM,62.6,57.2,82,29.87,10.0,NW,8.1,-,N/A,,Overcast,310,2013-12-05 10:35:00
4:55 AM,60.8,57.2,88,29.89,8.0,WNW,9.2,-,N/A,,Overcast,300,2013-12-05 10:55:00
5:30 AM,57.2,53.6,88,29.89,10.0,NW,10.4,-,N/A,,Overcast,320,2013-12-05 11:30:00
5:39 AM,57.2,53.6,88,29.89,10.0,NW,10.4,-,N/A,,Overcast,320,2013-12-05 11:39:00
5:55 AM,55.4,53.6,94,29.91,6.0,NW,11.5,-,N/A,Rain,Light Rain,320,2013-12-05 11:55:00
6:55 AM,53.6,51.8,94,29.96,6.0,NW,9.2,-,N/A,Rain,Light Rain,310,2013-12-05 12:55:00
7:55 AM,51.8,50.0,94,30.00,6.0,NW,9.2,-,N/A,Rain,Light Rain,320,2013-12-05 13:55:00
8:55 AM,48.2,46.4,93,30.04,6.0,NNW,11.5,-,N/A,Rain,Light Rain,330,2013-12-05 14:55:00
9:55 AM,48.2,44.6,87,30.04,10.0,North,15.0,-,N/A,,Overcast,360,2013-12-05 15:55:00
10:55 AM,46.4,42.8,87,30.06,10.0,North,5.8,-,N/A,,Overcast,350,2013-12-05 16:55:00
11:55 AM,44.6,35.6,71,30.04,10.0,NNW,15.0,-,N/A,,Overcast,340,2013-12-05 17:55:00
12:55 PM,42.8,35.6,76,30.04,10.0,North,12.7,-,N/A,Rain,Light Rain,350,2013-12-05 18:55:00
1:55 PM,39.2,35.6,87,30.04,10.0,North,13.8,-,N/A,,Overcast,350,2013-12-05 19:55:00
2:55 PM,37.4,33.8,87,30.05,10.0,North,13.8,-,N/A,,Overcast,360,2013-12-05 20:55:00
3:53 PM,35.6,33.8,93,30.09,10.0,North,13.8,-,N/A,,Overcast,10,2013-12-05 21:53:00
4:54 PM,35.6,33.8,93,30.09,10.0,North,11.5,-,N/A,,Mostly Cloudy,10,2013-12-05 22:54:00
5:54 PM,35.6,33.8,93,30.11,10.0,North,11.5,-,N/A,,Overcast,360,2013-12-05 23:54:00
6:55 PM,35.6,33.8,93,30.08,10.0,North,10.4,-,N/A,,Overcast,10,2013-12-06 00:55:00
7:55 PM,35.6,33.8,93,30.13,10.0,North,9.2,-,N/A,,Overcast,10,2013-12-06 01:55:00
8:55 PM,33.8,33.8,100,30.10,7.0,North,12.7,-,N/A,Rain,Light Rain,10,2013-12-06 02:55:00
9:55 PM,33.8,33.8,100,30.12,5.0,North,10.4,-,N/A,Rain,Light Rain,10,2013-12-06 03:55:00
10:55 PM,33.8,32.0,93,30.16,5.0,North,6.9,-,N/A,Rain,Light Rain,10,2013-12-06 04:55:00
11:53 PM,33.8,32.0,93,30.13,7.0,NE,6.9,-,N/A,Rain,Light Rain,40,2013-12-06 05:53:00